Flag for U.S.A. Weather past 2 weeks in St. Paul, Minnesota, U.S.A.

Now
60 °F

Sunny.


Feels Like: 60 °F
Forecast: 35 / 60 °F
Wind: 10 mph from East

Location: St. Paul Downtown Holman Field

Current Time: Apr 25, 2015 at 7:26:02 PM

Latest Report: Apr 25, 2015 at 6:53 PM


Visibility: 10 mi

Pressure: 29.87 "Hg

Humidity: 20%

Dew point: 19 °F

Location of St. PaulLocation

Historic Weather in St. Paul — Graph

°F

St. Paul temperature yesterday

Maximum temperature yesterday: 51 °F (at 11:53 AM)
Minimum temperature yesterday: 39 °F (at 12:53 AM)
Average temperature yesterday: 46 °F

Past Weeks' High & Low Weather Summary

 TemperatureHumidityPressure
High75 °F (Apr 12, 3:53 PM)96% (Apr 11, 4:53 AM)30.28 "Hg (Apr 11, 4:53 AM)
Low28 °F (Apr 23, 6:53 AM)11% (Apr 23, 5:53 PM)29.50 "Hg (Apr 20, 5:53 AM)
Average51 °F50%29.92 "Hg
* Reported Apr 10 5:53 PM — Apr 25 5:53 PM, St. Paul, Weather by CustomWeather, © 2015

Note: Actual official high and low records may vary slightly from our data, if they occured in-between our weather recording intervals... More about our weather records

Advertising

St. Paul weather history for previous 24 hours

 ConditionsComfort  
Time TempWeatherWind HumidityBarometerVisibility
5:53 PM
Sat, Apr 25
61 °FSunny.10 mph18%29.86 "Hg10 mi
4:53 PM61 °FSunny.8 mph22%29.85 "Hg10 mi
3:53 PM60 °FSunny.13 mph27%29.85 "Hg10 mi
2:53 PM60 °FSunny.16 mph33%29.85 "Hg10 mi
1:53 PM58 °FPassing clouds.15 mph43%29.85 "Hg10 mi
12:53 PM56 °FSunny.15 mph46%29.86 "Hg10 mi
11:53 AM53 °FPassing clouds.14 mph51%29.88 "Hg10 mi
10:53 AM50 °FScattered clouds.13 mph57%29.89 "Hg10 mi
9:53 AM49 °FPassing clouds.14 mph61%29.88 "Hg10 mi
8:53 AM45 °FOvercast.8 mph71%29.87 "Hg10 mi
7:53 AM43 °FOvercast.8 mph79%29.86 "Hg10 mi
7:03 AM43 °FOvercast.12 mph76%29.84 "Hg10 mi
6:53 AM43 °FMostly cloudy.9 mph76%29.85 "Hg10 mi
6:04 AM43 °FMostly cloudy.7 mph76%29.83 "Hg10 mi
5:53 AM43 °FMostly cloudy.10 mph79%29.84 "Hg10 mi
4:53 AM43 °FOvercast.10 mph79%29.83 "Hg10 mi
3:53 AM44 °FOvercast.13 mph79%29.83 "Hg10 mi
2:53 AM44 °FOvercast.12 mph79%29.83 "Hg10 mi
1:53 AM44 °FOvercast.10 mph79%29.82 "Hg10 mi
12:53 AM44 °FOvercast.14 mph79%29.83 "Hg10 mi
11:53 PM
Fri, Apr 24
45 °FMostly cloudy.16 mph80%29.83 "Hg10 mi
10:53 PM45 °FMostly cloudy.13 mph82%29.85 "Hg10 mi
9:53 PM46 °FOvercast.12 mph79%29.84 "Hg10 mi
8:53 PM45 °FMostly cloudy.10 mph82%29.83 "Hg10 mi
7:53 PM44 °FLight rain. Cloudy.12 mph89%29.84 "Hg8 mi
Weather by CustomWeather, © 2015

See weather overviewHow to use our weather pages